TimeCDT,TemperatureF,Dew PointF,Humidity,Sea Level PressureIn,VisibilityMPH,Wind Direction,Wind SpeedMPH,Gust SpeedMPH,PrecipitationIn,Events,Conditions,WindDirDegrees,DateUTC
12:53 AM,64.9,55.0,70,29.62,10.0,SSW,11.5,-,0.00,,Scattered Clouds,210,2013-05-31 05:53:00
1:53 AM,62.1,55.0,78,29.65,10.0,South,10.4,-,N/A,,Clear,190,2013-05-31 06:53:00
2:53 AM,60.1,55.0,83,29.67,10.0,South,10.4,-,N/A,,Clear,180,2013-05-31 07:53:00
3:53 AM,62.1,60.1,93,29.65,10.0,South,11.5,-,N/A,,Scattered Clouds,170,2013-05-31 08:53:00
4:00 AM,62.6,60.8,94,29.66,10.0,South,12.7,-,N/A,,Mostly Cloudy,170,2013-05-31 09:00:00
4:53 AM,62.1,61.0,96,29.64,9.0,South,6.9,-,N/A,,Mostly Cloudy,190,2013-05-31 09:53:00
5:03 AM,62.6,60.8,94,29.66,9.0,SSW,6.9,-,N/A,,Scattered Clouds,200,2013-05-31 10:03:00
6:05 AM,60.8,60.8,100,29.65,4.0,SSE,6.9,-,N/A,,Mostly Cloudy,150,2013-05-31 11:05:00
6:53 AM,62.1,61.0,96,29.63,5.0,SSE,9.2,-,N/A,,Overcast,160,2013-05-31 11:53:00
7:53 AM,63.0,61.0,93,29.64,9.0,South,8.1,-,N/A,,Overcast,180,2013-05-31 12:53:00
8:41 AM,66.2,62.6,88,29.67,10.0,South,12.7,-,N/A,,Scattered Clouds,190,2013-05-31 13:41:00
8:53 AM,66.9,62.1,84,29.64,10.0,South,11.5,-,N/A,,Partly Cloudy,180,2013-05-31 13:53:00
9:53 AM,70.0,62.1,76,29.65,10.0,South,17.3,26.5,N/A,,Clear,190,2013-05-31 14:53:00
10:53 AM,72.0,63.0,73,29.66,10.0,SSW,15.0,25.3,N/A,,Partly Cloudy,200,2013-05-31 15:53:00
11:53 AM,71.1,62.1,73,29.67,10.0,SSW,15.0,24.2,N/A,,Mostly Cloudy,200,2013-05-31 16:53:00
12:53 PM,73.9,63.0,68,29.66,10.0,SSW,17.3,25.3,N/A,,Mostly Cloudy,200,2013-05-31 17:53:00
1:53 PM,77.0,61.0,58,29.65,10.0,SSW,15.0,21.9,N/A,,Partly Cloudy,200,2013-05-31 18:53:00
2:53 PM,75.9,61.0,60,29.64,10.0,South,20.7,27.6,N/A,,Scattered Clouds,190,2013-05-31 19:53:00
3:53 PM,75.0,64.0,69,29.63,10.0,South,19.6,28.8,N/A,,Clear,190,2013-05-31 20:53:00
4:53 PM,75.9,62.1,62,29.63,10.0,SSW,18.4,26.5,N/A,,Clear,200,2013-05-31 21:53:00
5:53 PM,73.9,62.1,66,29.61,10.0,South,17.3,25.3,N/A,,Clear,190,2013-05-31 22:53:00
6:53 PM,73.0,62.1,68,29.62,10.0,South,10.4,19.6,N/A,,Clear,190,2013-05-31 23:53:00
7:53 PM,71.1,62.1,73,29.62,10.0,South,12.7,-,N/A,,Partly Cloudy,180,2013-06-01 00:53:00
8:53 PM,69.1,63.0,81,29.61,10.0,South,10.4,-,N/A,,Clear,180,2013-06-01 01:53:00
9:53 PM,70.0,63.0,78,29.63,10.0,South,12.7,-,N/A,,Mostly Cloudy,180,2013-06-01 02:53:00
10:53 PM,66.9,63.0,87,29.62,10.0,South,11.5,-,N/A,,Partly Cloudy,180,2013-06-01 03:53:00
11:53 PM,66.9,63.0,87,29.62,10.0,SSW,12.7,-,N/A,,Clear,200,2013-06-01 04:53:00